Date String (YYYY-MM-DD hh:mm:ss) UTC,Instrument flags,Ambient pressure (hPa),Sample flow (lpm),Bypass flow (lpm),Sample temperature (°C),Ambient temperature (°C),ASC tube jacket temperature (°C),LED temperature (°C),Box temperature (°C),Sample RH (%),Span deviation,Mass concentration (μg/m³),Mass concentration (μg/m³),Mass concentration (μg/m³)
DateTimeUTC,F1_M11,P_M11,Q1_M11,Q2_M11,T1_M11,T2_M11,T3_M11,T4_M11,T5_M11,U1_M11,ZSPAN_M11,X0_M11,X2_M11,X1_M11
2022-06-11 13:00:00,,0825.0,4.99,0.00,29.7,27.5,00.0,38.5,31.3,19.2,0000.0,0013.04,0005.28,0003.47
2022-06-11 13:01:00,,0825.1,5.01,0.00,29.6,27.4,00.0,38.5,31.3,19.5,0000.0,0013.21,0005.25,0003.47
2022-06-11 13:02:00,,0825.1,4.99,0.00,29.5,27.4,00.0,38.5,31.2,19.2,0000.0,0013.30,0005.29,0003.46
2022-06-11 13:03:00,,0825.1,5.00,0.00,29.5,27.5,00.0,38.5,31.2,22.5,0000.0,0013.10,0005.23,0003.45
2022-06-11 13:04:00,,0825.1,5.01,0.00,29.5,27.6,00.0,38.4,31.2,24.6,0000.0,0013.75,0005.23,0003.46
2022-06-11 13:05:00,,0825.1,4.99,0.00,29.5,27.8,00.0,38.4,31.3,22.4,0000.0,0014.20,0005.26,0003.47
2022-06-11 13:06:00,,0825.1,4.99,0.00,29.5,27.9,00.0,38.4,31.3,22.3,0000.0,0013.91,0005.23,0003.50
2022-06-11 13:07:00,,0825.1,5.01,0.00,29.5,28.0,00.0,38.4,31.3,22.4,0000.0,0014.24,0005.17,0003.51
2022-06-11 13:08:00,,0825.2,5.00,0.00,29.5,28.1,00.0,38.4,31.3,22.4,0000.0,0014.12,0005.14,0003.50
2022-06-11 13:09:00,,0825.2,5.00,0.00,29.5,28.2,00.0,38.4,31.3,24.2,0000.0,0013.73,0005.12,0003.50
2022-06-11 13:10:00,,0825.2,4.99,0.00,29.5,28.3,00.0,38.4,31.4,25.2,0000.0,0013.22,0005.10,0003.50
2022-06-11 13:11:00,,0825.2,5.00,0.00,29.5,28.4,00.0,38.4,31.4,25.1,0000.0,0012.88,0005.08,0003.50
2022-06-11 13:12:00,,0825.2,5.00,0.00,29.5,28.5,00.0,38.4,31.4,25.7,0000.0,0013.02,0005.11,0003.50
2022-06-11 13:13:00,,0825.2,5.00,0.00,29.5,28.5,00.0,38.4,31.4,24.9,0000.0,0013.98,0005.10,0003.50
2022-06-11 13:14:00,,0825.2,4.99,0.00,29.6,28.6,00.0,38.4,31.5,24.6,0000.0,0014.20,0005.11,0003.52
2022-06-11 13:15:00,,0825.2,5.01,0.00,29.6,28.6,00.0,38.4,31.5,24.5,0000.0,0014.09,0005.15,0003.52
2022-06-11 13:16:00,,0825.2,5.00,0.00,29.6,28.7,00.0,38.4,31.5,21.8,0000.0,0013.60,0005.14,0003.52
2022-06-11 13:17:00,,0825.2,5.01,0.00,29.6,28.7,00.0,38.5,31.5,21.6,0000.0,0013.63,0005.19,0003.53
2022-06-11 13:18:00,,0825.2,5.00,0.00,29.6,28.8,00.0,38.5,31.6,21.6,0000.0,0013.48,0005.21,0003.53
2022-06-11 13:19:00,,0825.2,5.00,0.00,29.7,28.8,00.0,38.5,31.6,22.0,0000.0,0013.54,0005.21,0003.54
2022-06-11 13:20:00,,0825.2,5.02,0.00,29.7,28.8,00.0,38.5,31.6,22.5,0000.0,0015.51,0005.21,0003.55
2022-06-11 13:21:00,,0825.2,5.00,0.00,29.7,28.9,00.0,38.5,31.6,22.2,0000.0,0016.46,0005.27,0003.57
2022-06-11 13:22:00,,0825.2,5.00,0.00,29.7,28.9,00.0,38.5,31.7,20.1,0000.0,0017.47,0005.39,0003.61
2022-06-11 13:23:00,,0825.2,4.99,0.00,29.8,28.9,00.0,38.5,31.7,21.9,0000.0,0018.62,0005.43,0003.65
2022-06-11 13:24:00,,0825.2,5.01,0.00,29.8,29.0,00.0,38.6,31.7,20.5,0000.0,0017.77,0005.47,0003.69
2022-06-11 13:25:00,,0825.2,5.00,0.00,29.8,29.0,00.0,38.6,31.7,20.1,0000.0,0017.55,0005.54,0003.72
2022-06-11 13:26:00,,0825.1,5.00,0.00,29.8,28.8,00.0,38.6,31.7,20.3,0000.0,0017.15,0005.55,0003.75
2022-06-11 13:27:00,,0825.2,5.01,0.00,29.8,28.0,00.0,38.5,31.5,20.1,0000.0,0017.76,0005.57,0003.77
2022-06-11 13:28:00,,0825.2,5.00,0.00,29.7,27.6,00.0,38.5,31.4,20.3,0000.0,0018.02,0005.52,0003.76
2022-06-11 13:29:00,,0825.2,5.00,0.00,29.6,27.6,00.0,38.5,31.3,20.9,0000.0,0017.84,0005.53,0003.78
2022-06-11 13:30:00,,0825.2,4.99,0.00,29.6,27.6,00.0,38.5,31.3,22.1,0000.0,0017.76,0005.54,0003.79
2022-06-11 13:31:00,,0825.2,5.01,0.00,29.5,27.7,00.0,38.5,31.3,23.0,0000.0,0016.43,0005.57,0003.80
2022-06-11 13:32:00,,0825.2,5.01,0.00,29.5,27.9,00.0,38.4,31.3,25.4,0000.0,0015.96,0005.60,0003.80
2022-06-11 13:33:00,,0825.2,5.00,0.00,29.5,28.0,00.0,38.4,31.4,25.2,0000.0,0015.14,0005.53,0003.80
2022-06-11 13:34:00,,0825.2,4.99,0.00,29.5,28.1,00.0,38.4,31.4,23.5,0000.0,0014.00,0005.51,0003.79
2022-06-11 13:35:00,,0825.2,4.98,0.00,29.5,28.2,00.0,38.4,31.4,23.2,0000.0,0014.47,0005.49,0003.80
2022-06-11 13:36:00,,0825.3,5.00,0.00,29.5,28.3,00.0,38.4,31.4,21.6,0000.0,0015.12,0005.47,0003.80
2022-06-11 13:37:00,,0825.3,5.01,0.00,29.6,28.4,00.0,38.4,31.5,21.8,0000.0,0015.29,0005.45,0003.80
2022-06-11 13:38:00,,0825.3,5.00,0.00,29.6,28.5,00.0,38.5,31.5,22.0,0000.0,0014.79,0005.48,0003.82
2022-06-11 13:39:00,,0825.3,4.99,0.00,29.6,28.6,00.0,38.5,31.5,19.9,0000.0,0014.49,0005.56,0003.84
2022-06-11 13:40:00,,0825.3,5.00,0.00,29.6,28.6,00.0,38.5,31.5,18.7,0000.0,0014.51,0005.59,0003.87
2022-06-11 13:41:00,,0825.2,5.00,0.00,29.6,28.7,00.0,38.5,31.6,20.0,0000.0,0014.49,0005.59,0003.89
2022-06-11 13:42:00,,0825.2,5.01,0.00,29.7,28.8,00.0,38.5,31.6,20.2,0000.0,0013.71,0005.57,0003.91
2022-06-11 13:43:00,,0825.2,5.01,0.00,29.7,28.8,00.0,38.5,31.6,21.6,0000.0,0013.84,0005.54,0003.93
2022-06-11 13:44:00,,0825.2,5.00,0.00,29.7,28.9,00.0,38.5,31.7,20.5,0000.0,0014.46,0005.60,0003.92
2022-06-11 13:45:00,,0825.2,5.00,0.00,29.8,28.9,00.0,38.5,31.7,19.6,0000.0,0015.33,0005.64,0003.91
2022-06-11 13:46:00,,0825.2,5.00,0.00,29.8,29.0,00.0,38.6,31.7,19.9,0000.0,0014.93,0005.66,0003.91
2022-06-11 13:47:00,,0825.2,5.01,0.00,29.8,28.9,00.0,38.6,31.7,20.5,0000.0,0014.30,0005.65,0003.92
2022-06-11 13:48:00,,0825.2,5.00,0.00,29.8,28.3,00.0,38.5,31.6,20.0,0000.0,0013.83,0005.63,0003.91
2022-06-11 13:49:00,,0825.2,4.99,0.00,29.7,27.8,00.0,38.5,31.4,20.4,0000.0,0013.60,0005.58,0003.89
2022-06-11 13:50:00,,0825.2,5.01,0.00,29.7,27.7,00.0,38.4,31.4,20.1,0000.0,0014.61,0005.50,0003.87
2022-06-11 13:51:00,,0825.2,5.00,0.00,29.6,27.7,00.0,38.4,31.3,22.0,0000.0,0014.97,0005.49,0003.84
2022-06-11 13:52:00,,0825.2,5.00,0.00,29.5,27.8,00.0,38.4,31.3,22.7,0000.0,0015.17,0005.49,0003.82
2022-06-11 13:53:00,,0825.2,4.99,0.00,29.5,27.9,00.0,38.4,31.3,21.4,0000.0,0015.14,0005.46,0003.81
2022-06-11 13:54:00,,0825.2,5.01,0.00,29.5,28.0,00.0,38.4,31.3,18.3,0000.0,0014.97,0005.47,0003.80
2022-06-11 13:55:00,,0825.2,5.00,0.00,29.5,28.1,00.0,38.4,31.4,18.5,0000.0,0014.54,0005.43,0003.79
2022-06-11 13:56:00,,0825.2,4.99,0.00,29.5,28.2,00.0,38.4,31.4,19.5,0000.0,0013.28,0005.36,0003.79
2022-06-11 13:57:00,,0825.2,5.00,0.00,29.5,28.3,00.0,38.4,31.4,20.0,0000.0,0013.71,0005.33,0003.78
2022-06-11 13:58:00,,0825.2,5.00,0.00,29.6,28.4,00.0,38.4,31.4,19.7,0000.0,0014.02,0005.32,0003.76
2022-06-11 13:59:00,,0825.2,5.00,0.00,29.6,28.5,00.0,38.4,31.5,20.0,0000.0,0014.31,0005.36,0003.76
